Tracking 28126 objects as of 1-Oct-2023
HD Live streaming from Space Station
objects crossing your sky now

SL-16 R/B

Track SL-16 R/B now!
10-day predictions
SL-16 R/B is classified as:


NORAD ID: 25400
Int'l Code: 1998-043G
Perigee: 805.6 km
Apogee: 821.4 km
Inclination: 98.7 °
Period: 101.0 minutes
Semi major axis: 7184 km
RCS: 12.0301 m2 (large)
Launch date: July 10, 1998
Source: Commonwealth of Independent States (former USSR) (CIS)
Launch site: TYURATAM MISSILE AND SPACE COMPLEX (TTMTR)

Note: This is a ROCKET BODY
Your satellite tracking list
Your tracking list is empty




NASA's NSSDC Master Catalog

Two Line Element Set (TLE):
1 25400U 98043G   23273.25879929  .00000163  00000-0  87246-4 0  9994
2 25400  98.7125 210.3723 0010970  83.1304 277.1123 14.25643515311957
Source of the keplerian elements: AFSPC